Weather History for EBCI - March, 2013

Change the Weather History Date:

Sunday, March 10, 2013

  Actual Average Record
Temperature  
Mean Temperature 32 °F -  
Max Temperature 34 °F 51 °F 63 °F (2014)
Min Temperature 30 °F 37 °F 28 °F (1998)
Degree Days  
Heating Degree Days 33    
Moisture  
Dew Point 32 °F    
Average Humidity 90    
Maximum Humidity 100    
Minimum Humidity 79    
Precipitation  
Precipitation 0.28 in - - ()
Sea Level Pressure  
Sea Level Pressure 29.58 in    
Wind  
Wind Speed 8 mph ()    
Max Wind Speed 13 mph    
Max Gust Speed -    
Visibility 2.2 miles    
Events Fog , Rain , Snow    
Averages and records for this station are not official NWS values.
T = Trace of Precipitation, MM = Missing Value Source: Averaged Metar Reports

Daily Weather History Graph

Daily Weather History Graph

Search for Another Location

Airport or City:

Trip Planner

Search our weather history database for the weather conditions in past years. The results will help you decide how hot, cold, wet, or windy it might be!

Date:

Astronomy

Mar. 10, 2013 Rise Set
Actual Time 7:06 AM CET 6:38 PM CET
Civil Twilight 6:34 AM CET 7:11 PM CET
Nautical Twilight 5:56 AM CET 7:49 PM CET
Astronomical Twilight 5:17 AM CET 8:28 PM CET
Moon 6:03 AM CET (3/10) 5:26 PM CET (3/10)
Length of Visible Light 12h 37m
Length of Day
11h 32m
Waning Crescent, 2% of the Moon is Illuminated
Mar 10
Waning Crescent
Mar 11
New
Mar 19
First Quarter
Mar 27
Full
Apr 3
Last Quarter

Hourly Weather History & Observations

Time (CET) Temp. Windchill Dew Point Humidity Pressure Visibility Wind Dir Wind Speed Gust Speed Precip Events Conditions
12:20 AM 42.8 °F 37.5 °F 41.0 °F 93% 29.56 in 2.2 mi West 9.2 mph - N/A   Mostly Cloudy
12:50 AM 42.8 °F 37.5 °F 41.0 °F 93% 29.56 in 2.2 mi West 9.2 mph - N/A   Mostly Cloudy
1:00 AM 43 °F - 41 °F 90% 29.59 in 2 mi West 8.9 mph - -   Mist
1:20 AM 41.0 °F 36.4 °F 41.0 °F 100% 29.56 in 2.2 mi WNW 6.9 mph - N/A   Mostly Cloudy
1:50 AM 41.0 °F 35.8 °F 39.2 °F 93% 29.56 in 0.9 mi WNW 8.1 mph - N/A   Mostly Cloudy
2:20 AM 39.2 °F 33.0 °F 39.2 °F 100% 29.56 in 0.3 mi West 9.2 mph - N/A Fog Fog
2:50 AM 39.2 °F 32.5 °F 39.2 °F 100% 29.56 in 0.7 mi West 10.4 mph - N/A   Mostly Cloudy
3:20 AM 39.2 °F 33.0 °F 37.4 °F 93% 29.56 in 0.7 mi West 9.2 mph - N/A   Mostly Cloudy
3:50 AM 37.4 °F 30.3 °F 37.4 °F 100% 29.56 in 0.7 mi WNW 10.4 mph - N/A   Mostly Cloudy
4:00 AM 38 °F - 37 °F 93% 29.58 in 1 mi WNW 11.2 mph - -   Mist
4:20 AM 37.4 °F 31.4 °F 35.6 °F 93% 29.53 in 0.6 mi West 8.1 mph - N/A   Mostly Cloudy
4:50 AM 37.4 °F 32.1 °F 35.6 °F 93% 29.53 in 0.7 mi West 6.9 mph - N/A   Light Drizzle
5:20 AM 37.4 °F 30.3 °F 35.6 °F 93% 29.53 in 1.6 mi West 10.4 mph - N/A   Mostly Cloudy
5:50 AM 35.6 °F 28.0 °F 33.8 °F 93% 29.53 in 3.1 mi West 10.4 mph - N/A   Mostly Cloudy
6:20 AM 35.6 °F 28.6 °F 33.8 °F 93% 29.53 in 3.7 mi West 9.2 mph - N/A Rain Light Rain
6:50 AM 33.8 °F 27.7 °F 32.0 °F 93% 29.53 in 1.2 mi West 6.9 mph - N/A Rain , Snow Light Rain
7:00 AM 33 °F - 32 °F 93% 29.59 in 1 mi West 6.7 mph - - Snow Light Snow
7:20 AM 32.0 °F 25.6 °F 30.2 °F 93% 29.56 in 0.4 mi West 6.9 mph - N/A Fog , Rain , Snow Snow
7:50 AM 32.0 °F 26.4 °F 30.2 °F 93% 29.56 in 0.4 mi West 5.8 mph - N/A Fog , Rain , Snow Light Snow
8:20 AM 32.0 °F 26.4 °F 30.2 °F 93% 29.56 in - West 5.8 mph - N/A Fog , Snow Light Snow
8:50 AM 32.0 °F 25.6 °F 30.2 °F 93% 29.56 in 0.7 mi West 6.9 mph - N/A Snow Light Snow
9:20 AM 32.0 °F 26.4 °F 30.2 °F 93% 29.56 in 0.9 mi West 5.8 mph - N/A Snow Light Snow
9:50 AM 32.0 °F 26.4 °F 30.2 °F 93% 29.56 in 1.1 mi WNW 5.8 mph - N/A Snow Light Snow
10:00 AM 32 °F - 30 °F 88% 29.60 in 1 mi WNW 4.5 mph - - Snow Light Snow
10:20 AM 32.0 °F 26.4 °F 30.2 °F 93% 29.56 in 1.2 mi WNW 5.8 mph - N/A Snow Light Snow
10:50 AM 32.0 °F 26.4 °F 30.2 °F 93% 29.56 in 1.7 mi WNW 5.8 mph - N/A Snow Light Snow
11:20 AM 32.0 °F 27.5 °F 30.2 °F 93% 29.56 in 1.9 mi NW 4.6 mph - N/A Rain , Snow Light Snow
11:50 AM 32.0 °F 27.5 °F 30.2 °F 93% 29.56 in 0.8 mi NW 4.6 mph - N/A Rain , Snow Light Snow
12:20 PM 33.8 °F 28.6 °F 30.2 °F 87% 29.56 in 1.1 mi NNW 5.8 mph - N/A Rain , Snow Light Snow
12:50 PM 33.8 °F 27.7 °F 30.2 °F 87% 29.56 in 1.7 mi NNW 6.9 mph - N/A Rain , Snow Light Rain
1:00 PM 33 °F - 31 °F 88% 29.62 in 2 mi NNW 6.7 mph - - Snow Light Snow
1:20 PM 33.8 °F 27.7 °F 32.0 °F 93% 29.56 in 2.2 mi North 6.9 mph - N/A Rain Light Rain
1:50 PM 33.8 °F 27.7 °F 30.2 °F 87% 29.56 in - North 6.9 mph - N/A Rain Light Rain
2:20 PM 33.8 °F 27.0 °F 30.2 °F 87% 29.56 in 3.1 mi NNE 8.1 mph - N/A   Mostly Cloudy
2:50 PM 33.8 °F 27.7 °F 30.2 °F 87% 29.56 in 3.7 mi North 6.9 mph - N/A   Mostly Cloudy
3:20 PM 33.8 °F 26.4 °F 30.2 °F 87% 29.59 in 3.7 mi North 9.2 mph - N/A   Mostly Cloudy
3:50 PM 33.8 °F 27.7 °F 30.2 °F 87% 29.59 in 4.3 mi NNE 6.9 mph - N/A   Mostly Cloudy
4:20 PM 32.0 °F 24.8 °F 30.2 °F 93% 29.59 in 3.7 mi NNE 8.1 mph - N/A   Mostly Cloudy
4:50 PM 32.0 °F 23.6 °F 30.2 °F 93% 29.59 in 3.1 mi North 10.4 mph - N/A   Mostly Cloudy
5:20 PM 32.0 °F 24.8 °F 28.4 °F 87% 29.59 in 3.1 mi North 8.1 mph - N/A   Mostly Cloudy
5:50 PM 32.0 °F 23.6 °F 28.4 °F 87% 29.59 in 3.7 mi NNE 10.4 mph - N/A   Mostly Cloudy
6:20 PM 32.0 °F 23.6 °F 28.4 °F 87% 29.59 in 3.7 mi NNE 10.4 mph - N/A   Mostly Cloudy
6:50 PM 32.0 °F 23.6 °F 28.4 °F 87% 29.62 in 3.7 mi NNE 10.4 mph - N/A   Mostly Cloudy
7:00 PM 32 °F - 28 °F 81% 29.66 in 4 mi NNE 11.2 mph - -   Overcast
7:20 PM 32.0 °F 23.0 °F 28.4 °F 87% 29.62 in 3.7 mi NNE 11.5 mph - N/A   Mostly Cloudy
7:50 PM 30.2 °F 20.8 °F 28.4 °F 93% 29.62 in 3.7 mi NE 11.5 mph - N/A   Mostly Cloudy
8:20 PM 30.2 °F 20.8 °F 26.6 °F 86% 29.62 in 3.7 mi NNE 11.5 mph - N/A   Mostly Cloudy
8:50 PM 30.2 °F 20.8 °F 26.6 °F 86% 29.62 in 3.7 mi NNE 11.5 mph - N/A   Mostly Cloudy
9:20 PM 30.2 °F 20.8 °F 26.6 °F 86% 29.62 in 2.8 mi NE 11.5 mph - N/A   Mostly Cloudy
9:50 PM 30.2 °F 20.2 °F 26.6 °F 86% 29.62 in 2.8 mi NE 12.7 mph - N/A   Mostly Cloudy
10:00 PM 30 °F - 26 °F 79% 29.68 in 3 mi NE 13.4 mph - -   Mist
10:20 PM 30.2 °F 21.3 °F 26.6 °F 86% 29.65 in 3.1 mi NE 10.4 mph - N/A   Mostly Cloudy
10:50 PM 30.2 °F 20.2 °F 26.6 °F 86% 29.62 in 3.1 mi NE 12.7 mph - N/A   Mostly Cloudy
11:20 PM 30.2 °F 20.2 °F 26.6 °F 86% 29.62 in 3.1 mi NE 12.7 mph - N/A   Mostly Cloudy
11:50 PM 30.2 °F 20.2 °F 26.6 °F 86% 29.65 in 3.1 mi NE 12.7 mph - N/A   Mostly Cloudy